CW6225 Weather Reports


time (UTC)temp
F
wind
direction
speed
knots
gust
knots
rain 1hr
in
rain 24hr
in
rain mn
in
humidity
%
barometer
mb
20260504214602 60 187 0.9 3.5 0.00 0.00 0.00 75 1010.7
20260504213054 61 200 0.9 4.3 0.00 0.00 0.00 75 1010.7
20260504211551 61 171 0.9 4.3 0.00 0.00 0.00 74 1010.7
20260504204632 62 174 0.9 2.6 0.00 0.00 0.00 73 1010.8
20260504203122 62 0 0.0 1.7 0.00 0.00 0.00 72 1010.7
20260504201558 62 0 0.0 2.6 0.00 0.00 0.00 72 1010.8
20260504200055 62 170 0.9 2.6 0.00 0.00 0.00 73 1010.9
20260504194556 60 171 0.9 4.3 0.00 0.00 0.00 76 1010.7
20260504193056 63 164 0.9 3.5 0.00 0.00 0.00 70 1010.7
20260504191601 63 180 0.0 1.7 0.00 0.00 0.00 70 1010.7
20260504190053 63 0 0.0 1.7 0.00 0.00 0.00 71 1010.7
20260504184559 62 272 0.0 2.6 0.00 0.00 0.00 72 1010.8
20260504183104 61 0 0.0 1.7 0.00 0.00 0.00 73 1010.8
20260504181554 59 0 0.0 2.6 0.00 0.00 0.00 74 1010.8
20260504180105 59 0 0.0 2.6 0.00 0.00 0.00 75 1011.0
20260504174549 59 178 0.9 2.6 0.00 0.00 0.00 74 1011.0
20260504173105 59 194 0.9 1.7 0.00 0.00 0.00 73 1010.9
20260504171559 60 194 0.0 3.5 0.00 0.00 0.00 72 1011.0
20260504081556 58 0 0.0 1.7 0.00 0.00 0.00 68 1009.5
20260504044554 59 0 0.0 0.0 0.00 0.00 0.00 68 1009.8
20260504043058 60 0 0.0 0.0 0.00 0.00 0.00 68 1009.7
20260504041549 60 0 0.0 0.0 0.00 0.00 0.00 68 1009.7
20260504040054 61 0 0.0 0.0 0.00 0.00 0.00 65 1009.7
20260504034606 62 0 0.0 0.0 0.00 0.00 0.00 63 1009.6
20260504033051 65 0 0.0 0.9 0.00 0.00 0.00 59 1009.6
20260504031552 68 0 0.0 1.7 0.00 0.00 0.00 54 1009.6
20260504030058 71 0 0.0 0.0 0.00 0.00 0.00 48 1009.6
20260504024555 72 0 0.0 0.9 0.00 0.00 0.00 48 1009.8
20260504023057 71 0 0.0 2.6 0.00 0.00 0.00 47 1009.8
20260504021556 70 0 0.0 2.6 0.00 0.00 0.00 50 1009.9
20260504020105 70 0 0.0 1.7 0.00 0.00 0.00 51 1010.1
20260504014558 70 0 0.0 1.7 0.00 0.00 0.00 51 1010.1
20260504013108 71 0 0.0 1.7 0.00 0.00 0.00 51 1010.2
20260504011549 71 0 0.0 1.7 0.00 0.00 0.00 53 1010.4
20260504010047 70 0 0.0 1.7 0.00 0.00 0.00 53 1010.4
20260504004551 69 0 0.0 1.7 0.00 0.00 0.00 56 1010.6
20260504003047 68 0 0.0 0.0 0.00 0.00 0.00 61 1010.7
20260504001550 66 188 0.0 2.6 0.00 0.00 0.00 64 1010.8
20260504000049 67 171 0.9 1.7 0.00 0.00 0.00 62 1011.0
20260503234549 66 0 0.0 2.6 0.00 0.00 0.00 65 1011.3
20260503233047 64 0 0.0 3.5 0.00 0.00 0.00 69 1011.3
20260503231552 62 165 1.7 5.2 0.00 0.00 0.00 72 1011.4
20260503230052 64 161 1.7 4.3 0.00 0.00 0.00 72 1011.7
20260503224600 64 127 3.5 7.8 0.00 0.00 0.00 67 1011.8
20260503223054 68 134 3.5 6.1 0.00 0.00 0.00 61 1012.1
20260503221601 71 168 0.9 3.5 0.00 0.00 0.00 54 1012.1
20260503220055 70 180 0.9 2.6 0.00 0.00 0.00 56 1012.3